TimeEST,TemperatureF,Dew PointF,Humidity,Sea Level PressureIn,VisibilityMPH,Wind Direction,Wind SpeedMPH,Gust SpeedMPH,PrecipitationIn,Events,Conditions,WindDirDegrees,DateUTC
12:56 AM,32.0,19.0,59,30.25,10.0,SW,4.6,-,N/A,,Clear,230,2014-02-01 05:56:00
1:56 AM,30.9,19.0,61,30.27,10.0,WSW,3.5,-,N/A,,Clear,250,2014-02-01 06:56:00
2:56 AM,30.0,19.9,66,30.28,10.0,WSW,3.5,-,N/A,,Clear,250,2014-02-01 07:56:00
3:56 AM,30.9,19.9,64,30.29,10.0,Calm,Calm,-,N/A,,Partly Cloudy,0,2014-02-01 08:56:00
4:56 AM,28.9,21.0,72,30.30,10.0,WSW,3.5,-,N/A,,Clear,240,2014-02-01 09:56:00
5:56 AM,25.0,21.0,85,30.32,10.0,Calm,Calm,-,N/A,,Clear,0,2014-02-01 10:56:00
6:56 AM,25.0,21.0,85,30.35,10.0,Calm,Calm,-,N/A,,Mostly Cloudy,0,2014-02-01 11:56:00
7:56 AM,25.0,21.0,85,30.37,9.0,Calm,Calm,-,N/A,,Clear,0,2014-02-01 12:56:00
8:56 AM,32.0,21.9,66,30.38,10.0,Calm,Calm,-,N/A,,Clear,0,2014-02-01 13:56:00
9:56 AM,37.0,19.9,50,30.37,10.0,Calm,Calm,-,N/A,,Clear,0,2014-02-01 14:56:00
10:56 AM,41.0,19.9,43,30.35,10.0,Calm,Calm,-,N/A,,Clear,0,2014-02-01 15:56:00
11:56 AM,44.1,19.9,38,30.33,10.0,Calm,Calm,-,N/A,,Clear,0,2014-02-01 16:56:00
12:56 PM,44.1,19.0,37,30.30,10.0,South,4.6,-,N/A,,Clear,190,2014-02-01 17:56:00
1:56 PM,43.0,19.9,40,30.29,10.0,South,9.2,-,N/A,,Clear,170,2014-02-01 18:56:00
2:56 PM,44.1,21.9,42,30.26,10.0,South,4.6,-,N/A,,Clear,180,2014-02-01 19:56:00
3:56 PM,39.9,21.9,49,30.25,10.0,ESE,9.2,-,N/A,,Mostly Cloudy,120,2014-02-01 20:56:00
4:56 PM,39.0,24.1,55,30.23,10.0,SE,4.6,-,N/A,,Overcast,140,2014-02-01 21:56:00
5:56 PM,39.0,21.0,49,30.24,10.0,South,12.7,-,N/A,,Mostly Cloudy,180,2014-02-01 22:56:00
6:56 PM,37.0,24.1,59,30.25,10.0,South,8.1,-,N/A,,Overcast,180,2014-02-01 23:56:00
7:56 PM,36.0,25.0,64,30.22,10.0,South,9.2,-,N/A,,Overcast,180,2014-02-02 00:56:00
8:56 PM,35.1,26.1,70,30.18,10.0,South,8.1,-,N/A,,Partly Cloudy,170,2014-02-02 01:56:00
9:56 PM,35.1,27.0,72,30.14,10.0,South,6.9,-,N/A,,Partly Cloudy,180,2014-02-02 02:56:00
10:56 PM,35.1,28.9,78,30.09,10.0,South,4.6,-,N/A,,Clear,170,2014-02-02 03:56:00
11:56 PM,33.1,28.9,85,30.07,9.0,South,3.5,-,N/A,,Partly Cloudy,190,2014-02-02 04:56:00